Weather History for Point Pleasant, WV

Change the Weather History Date:

Sunday, January 18, 2009

  Actual Average (KHTS) Record (KHTS)
Temperature  
Mean Temperature 32 °F 34 °F  
Max Temperature 35 °F 42 °F 74 °F (1949)
Min Temperature 30 °F 25 °F -11 °F (1994)
Degree Days  
Heating Degree Days 32 31  
Month to date heating degree days 564  
Since 1 July heating degree days 2319  
Cooling Degree Days 0 0  
Month to date cooling degree days 0  
Year to date cooling degree days 0  
Moisture  
Dew Point 29 °F    
Average Humidity 84    
Maximum Humidity 93    
Minimum Humidity 70    
Precipitation  
Precipitation 0.00 in 0.10 in 1.55 in (1937)
Month to date precipitation 1.72  
Year to date precipitation 1.72  
Snow  
Snow 0.00 in - - ()
Month to date snowfall  
Since 1 September snowfall  
Snow Depth -    
Sea Level Pressure  
Sea Level Pressure 29.80 in    
Wind  
Wind Speed 10 mph (WSW)    
Max Wind Speed 17 mph    
Max Gust Speed 24 mph    
Visibility 6 miles    
Events Rain , Snow    
T = Trace of Precipitation, MM = Missing Value Source: NWS Daily Summary

Daily Weather History Graph

Daily Weather History Graph

Search for Another Location

Airport:

Trip Planner

Search our weather history database for the weather conditions in past years. The results will help you decide how hot, cold, wet, or windy it might be!

Date:

Astronomy

Jan. 18, 2009 Rise Set
Actual Time 7:44 AM EST 5:34 PM EST
Civil Twilight 7:15 AM EST 6:03 PM EST
Nautical Twilight 6:42 AM EST 6:35 PM EST
Astronomical Twilight 6:10 AM EST 7:07 PM EST
Moon 1:16 AM EST (1/18) 11:38 AM EST (1/18)
Length of Visible Light 10h 47m
Length of Day
9h 49m
Last Quarter, 44% of the Moon is Illuminated
Jan 18
Last Quarter
Jan 26
New
Feb 2
First Quarter
Feb 9
Full
Feb 16
Last Quarter

Hourly Weather History & Observations

Time (EST) Temp. Windchill Dew Point Humidity Pressure Visibility Wind Dir Wind Speed Gust Speed Precip Events Conditions
12:00 AM 35.6 °F 26.6 °F 26.6 °F 70% 29.89 in 10.0 mi SW 13.8 mph 21.9 mph N/A   Overcast
12:20 AM 35.6 °F 27.1 °F 26.6 °F 70% 29.88 in 10.0 mi SW 12.7 mph 21.9 mph N/A   Overcast
12:40 AM 35.6 °F 26.2 °F 26.6 °F 70% 29.87 in 10.0 mi SW 15.0 mph - N/A   Overcast
1:00 AM 35.6 °F 26.6 °F 26.6 °F 70% 29.86 in 10.0 mi SW 13.8 mph 19.6 mph N/A   Overcast
1:20 AM 35.6 °F 26.2 °F 26.6 °F 70% 29.85 in 10.0 mi SW 15.0 mph 20.7 mph N/A   Overcast
1:40 AM 35.6 °F 28.0 °F 26.6 °F 70% 29.85 in 10.0 mi SW 10.4 mph 17.3 mph N/A   Overcast
2:00 AM 35.6 °F 28.6 °F 26.6 °F 70% 29.85 in 10.0 mi SW 9.2 mph 19.6 mph N/A   Overcast
2:20 AM 35.6 °F 25.5 °F 28.4 °F 75% 29.85 in 10.0 mi SW 17.3 mph 24.2 mph N/A   Overcast
2:40 AM 35.6 °F 26.2 °F 28.4 °F 75% 29.84 in 10.0 mi SW 15.0 mph 21.9 mph N/A   Overcast
3:00 AM 35.6 °F 26.6 °F 28.4 °F 75% 29.84 in 10.0 mi SW 13.8 mph 23.0 mph N/A   Overcast
3:20 AM 35.6 °F 27.1 °F 30.2 °F 81% 29.84 in 7.0 mi WSW 12.7 mph 18.4 mph N/A   Overcast
3:40 AM 35.6 °F 27.1 °F 30.2 °F 81% 29.83 in 4.0 mi SW 12.7 mph 20.7 mph N/A   Haze
4:00 AM 35.6 °F 27.5 °F 30.2 °F 81% 29.83 in 7.0 mi SW 11.5 mph 18.4 mph N/A Rain Light Rain
4:20 AM 35.6 °F 27.5 °F 32.0 °F 87% 29.82 in 4.0 mi WSW 11.5 mph 21.9 mph N/A Rain Light Rain
5:00 AM 33.8 °F 25.8 °F 32.0 °F 93% 29.81 in 4.0 mi WSW 10.4 mph - N/A Rain Light Rain
5:20 AM 33.8 °F 25.3 °F 32.0 °F 93% 29.81 in 5.0 mi SW 11.5 mph - N/A   Overcast
5:40 AM 33.8 °F 25.3 °F 32.0 °F 93% 29.80 in 4.0 mi SW 11.5 mph 16.1 mph N/A   Overcast
6:00 AM 33.8 °F 28.6 °F 32.0 °F 93% 29.80 in 4.0 mi SW 5.8 mph - N/A   Overcast
6:20 AM 33.8 °F 27.0 °F 32.0 °F 93% 29.79 in 4.0 mi SW 8.1 mph - N/A   Overcast
6:40 AM 33.8 °F 27.0 °F 32.0 °F 93% 29.79 in 4.0 mi SSW 8.1 mph - N/A Rain Light Rain
7:20 AM 33.8 °F 28.6 °F 32.0 °F 93% 29.79 in 2.5 mi SW 5.8 mph - N/A Rain Light Rain
7:40 AM 33.8 °F 27.7 °F 32.0 °F 93% 29.79 in 2.5 mi SW 6.9 mph - N/A Rain Light Rain
8:00 AM 33.8 °F 24.3 °F 32.0 °F 93% 29.79 in 3.0 mi WSW 13.8 mph 23.0 mph N/A Rain Light Rain
8:20 AM 33.8 °F 26.4 °F 32.0 °F 93% 29.80 in 10.0 mi WSW 9.2 mph - N/A   Overcast
8:40 AM 33.8 °F 26.4 °F 32.0 °F 93% 29.80 in 10.0 mi SW 9.2 mph - N/A   Overcast
9:00 AM 33.8 °F 26.4 °F 32.0 °F 93% 29.80 in 10.0 mi WSW 9.2 mph - N/A   Overcast
9:20 AM 33.8 °F 26.4 °F 32.0 °F 93% 29.81 in 4.0 mi WSW 9.2 mph - N/A Snow Light Snow
9:40 AM 33.8 °F 27.7 °F 32.0 °F 93% 29.81 in 2.0 mi SW 6.9 mph - N/A Snow Light Snow
10:00 AM 33.8 °F 28.6 °F 32.0 °F 93% 29.81 in 1.8 mi SW 5.8 mph - N/A Snow Light Snow
10:20 AM 33.8 °F 27.0 °F 32.0 °F 93% 29.80 in 5.0 mi SW 8.1 mph - N/A Snow Light Snow
10:40 AM 33.8 °F 24.3 °F 32.0 °F 93% 29.80 in 10.0 mi SW 13.8 mph 18.4 mph N/A   Overcast
11:00 AM 35.6 °F 27.5 °F 32.0 °F 87% 29.80 in 10.0 mi WSW 11.5 mph - N/A   Overcast
11:20 AM 35.6 °F 27.1 °F 32.0 °F 87% 29.79 in 10.0 mi WSW 12.7 mph - N/A   Overcast
11:40 AM 35.6 °F 28.0 °F 30.2 °F 81% 29.78 in 10.0 mi WSW 10.4 mph 18.4 mph N/A   Overcast
12:00 PM 35.6 °F 27.1 °F 30.2 °F 81% 29.77 in 4.0 mi WSW 12.7 mph 19.6 mph N/A Snow Light Snow
12:20 PM 33.8 °F 27.7 °F 30.2 °F 87% 29.77 in 1.2 mi West 6.9 mph 19.6 mph N/A Snow Light Snow
12:40 PM 33.8 °F 27.0 °F 30.2 °F 87% 29.76 in 4.0 mi WSW 8.1 mph - N/A Snow Light Snow
1:00 PM 33.8 °F 29.6 °F 30.2 °F 87% 29.75 in 2.5 mi West 4.6 mph - N/A Snow Light Snow
1:20 PM 33.8 °F - 30.2 °F 87% 29.75 in 5.0 mi Calm Calm - N/A Snow Light Snow
2:00 PM 32.0 °F 26.4 °F 30.2 °F 93% 29.75 in 2.0 mi West 5.8 mph - N/A Snow Light Snow
2:20 PM 32.0 °F 25.6 °F 28.4 °F 87% 29.75 in 1.2 mi WSW 6.9 mph - N/A Snow Light Snow
2:40 PM 32.0 °F 24.8 °F 28.4 °F 87% 29.75 in 1.2 mi WSW 8.1 mph 16.1 mph N/A Snow Light Snow
3:20 PM 32.0 °F 24.8 °F 26.6 °F 80% 29.75 in 7.0 mi WSW 8.1 mph - N/A Snow Light Snow
4:00 PM 32.0 °F 25.6 °F 26.6 °F 80% 29.76 in 10.0 mi WSW 6.9 mph - N/A   Overcast
4:20 PM 32.0 °F 25.6 °F 26.6 °F 80% 29.76 in 10.0 mi WSW 6.9 mph - N/A Snow Light Snow
4:40 PM 32.0 °F 25.6 °F 26.6 °F 80% 29.75 in 10.0 mi WSW 6.9 mph - N/A   Overcast
5:00 PM 32.0 °F 24.8 °F 26.6 °F 80% 29.76 in 10.0 mi WSW 8.1 mph - N/A   Overcast
5:20 PM 32.0 °F 28.7 °F 26.6 °F 80% 29.76 in 10.0 mi WSW 3.5 mph - N/A Snow Light Snow
5:40 PM 32.0 °F 25.6 °F 26.6 °F 80% 29.77 in 4.0 mi WSW 6.9 mph - N/A Snow Light Snow
6:20 PM 32.0 °F - 26.6 °F 80% 29.77 in 10.0 mi Calm Calm - N/A   Overcast
6:40 PM 32.0 °F 27.5 °F 26.6 °F 80% 29.78 in 3.0 mi WNW 4.6 mph - N/A Snow Light Snow
7:00 PM 32.0 °F 27.5 °F 26.6 °F 80% 29.78 in 5.0 mi West 4.6 mph - N/A Snow Light Snow
7:20 PM 32.0 °F - 28.4 °F 87% 29.79 in 7.0 mi Calm Calm - N/A   Overcast
7:40 PM 32.0 °F 26.4 °F 28.4 °F 87% 29.79 in 10.0 mi WNW 5.8 mph - N/A   Overcast
8:00 PM 32.0 °F 28.7 °F 26.6 °F 80% 29.79 in 10.0 mi WNW 3.5 mph - N/A   Overcast
8:20 PM 32.0 °F 27.5 °F 26.6 °F 80% 29.79 in 7.0 mi NW 4.6 mph - N/A Snow Light Snow
8:40 PM 30.2 °F 24.3 °F 24.8 °F 80% 29.80 in 10.0 mi West 5.8 mph - N/A Snow Light Snow
9:00 PM 30.2 °F 24.3 °F 24.8 °F 80% 29.80 in 4.0 mi West 5.8 mph - N/A Snow Light Snow
9:20 PM 30.2 °F 26.7 °F 23.0 °F 75% 29.80 in 2.0 mi West 3.5 mph - N/A Snow Light Snow
9:40 PM 30.2 °F 25.4 °F 24.8 °F 80% 29.80 in 7.0 mi West 4.6 mph - N/A Snow Light Snow
10:00 PM 30.2 °F 25.4 °F 23.0 °F 75% 29.80 in 1.8 mi WNW 4.6 mph - N/A Snow Light Snow
10:20 PM 28.4 °F 24.6 °F 23.0 °F 80% 29.80 in 7.0 mi WNW 3.5 mph - N/A Snow Light Snow
10:40 PM 28.4 °F 23.3 °F 23.0 °F 80% 29.79 in 10.0 mi West 4.6 mph - N/A   Overcast
11:00 PM 28.4 °F - 23.0 °F 80% 29.79 in 10.0 mi Calm Calm - N/A   Overcast
11:20 PM 28.4 °F 24.6 °F 23.0 °F 80% 29.76 in 10.0 mi SE 3.5 mph - N/A   Overcast
11:40 PM 28.4 °F - 23.0 °F 80% 29.75 in 10.0 mi Calm Calm - N/A   Mostly Cloudy